DW7980 Weather Reports


Display with metric or nautical units.
time (UTC)temp
F
wind
direction
speed
MPH
gust
MPH
rain 1hr
in
rain 24hr
in
rain mn
in
humidity
%
barometer
mb
20190423063333 55 207 0.0 0.0 0.00 0.00 0.00 84 1022.6
20190423062817 55 207 0.0 0.0 0.00 0.00 0.00 84 1022.5
20190423062325 55 207 0.0 0.0 0.00 0.00 0.00 84 1022.5
20190423061823 55 207 0.0 0.0 0.00 0.00 0.00 84 1022.5
20190423061317 55 207 0.0 0.0 0.00 0.00 0.00 84 1022.4
20190423060815 55 207 0.0 0.0 0.00 0.00 0.00 84 1022.4
20190423060331 55 207 0.0 0.0 0.00 0.00 0.00 84 1022.5
20190423055844 55 207 0.0 0.0 0.00 0.00 0.00 84 1022.5
20190423055326 55 207 0.0 0.0 0.00 0.00 0.00 84 1022.6
20190423054826 55 207 0.0 0.0 0.00 0.00 0.00 84 1022.6
20190423054315 55 207 0.0 0.0 0.00 0.00 0.00 84 1022.7
20190423053819 55 207 0.0 0.0 0.00 0.00 0.00 84 1022.7
20190423053313 55 207 0.0 0.0 0.00 0.00 0.00 84 1022.7
20190423052829 55 207 0.0 0.0 0.00 0.00 0.00 83 1022.6
20190423052323 55 207 0.0 0.0 0.00 0.00 0.00 83 1022.8
20190423051826 55 207 0.0 0.0 0.00 0.00 0.00 84 1022.9
20190423051339 55 207 0.0 0.0 0.00 0.00 0.00 84 1022.8
20190423050821 55 207 0.0 0.0 0.00 0.00 0.00 84 1022.8
20190423050317 55 207 0.0 0.0 0.00 0.00 0.00 84 1022.9
20190423045822 55 207 0.0 0.0 0.00 0.00 0.00 84 1023.0
20190423045332 56 207 0.0 0.0 0.00 0.00 0.00 84 1023.1
20190423044821 56 207 0.0 0.0 0.00 0.00 0.00 84 1023.1
20190423044318 56 207 0.0 0.0 0.00 0.00 0.00 84 1023.2
20190423043834 56 207 0.0 0.0 0.00 0.00 0.00 84 1023.2
20190423043323 56 207 0.0 0.0 0.00 0.00 0.00 84 1023.3
20190423042842 56 207 0.0 0.0 0.00 0.00 0.00 84 1023.1
20190423042324 56 207 0.0 0.0 0.00 0.00 0.00 84 1023.0
20190423041828 56 207 0.0 0.0 0.00 0.00 0.00 84 1023.0
20190423041325 56 207 0.0 0.0 0.00 0.00 0.00 84 1023.2
20190423040828 56 207 0.0 0.0 0.00 0.00 0.00 83 1023.1
20190423040323 56 207 0.0 0.0 0.00 0.00 0.00 83 1023.1
20190423035820 56 207 0.0 0.0 0.00 0.00 0.00 83 1023.1
20190423035339 56 207 0.0 0.0 0.00 0.00 0.00 83 1023.1
20190423034816 56 207 0.0 0.0 0.00 0.00 0.00 84 1023.1
20190423034310 56 207 0.0 0.0 0.00 0.00 0.00 84 1023.2
20190423033817 56 207 0.0 0.0 0.00 0.00 0.00 84 1023.1
20190423033326 56 207 0.0 0.0 0.00 0.00 0.00 84 1023.2
20190423032815 56 207 0.0 0.0 0.00 0.00 0.00 84 1023.2
20190423032331 56 207 0.0 0.0 0.00 0.00 0.00 84 1023.2
20190423031824 56 207 0.0 0.0 0.00 0.00 0.00 84 1023.2
20190423031319 56 207 0.0 0.0 0.00 0.00 0.00 83 1023.2
20190423030834 56 207 0.0 0.0 0.00 0.00 0.00 84 1023.0
20190423030340 56 207 0.0 0.0 0.00 0.00 0.00 83 1023.0
20190423025827 56 207 0.0 0.0 0.00 0.00 0.00 83 1023.1
20190423025315 56 207 0.0 0.0 0.00 0.00 0.00 83 1023.0
20190423024824 56 207 0.0 0.0 0.00 0.00 0.00 83 1023.1
20190423024318 56 207 0.0 0.0 0.00 0.00 0.00 83 1023.1
20190423023816 56 207 0.0 0.0 0.00 0.00 0.00 83 1023.2
20190423023329 56 207 0.0 0.0 0.00 0.00 0.00 83 1023.3
20190423022818 56 207 0.0 0.0 0.00 0.00 0.00 83 1023.4
20190423022324 56 207 0.0 0.0 0.00 0.00 0.00 83 1023.5
20190423021818 56 207 0.0 0.0 0.00 0.00 0.00 83 1023.6
20190423021323 57 207 0.0 0.0 0.00 0.00 0.00 83 1023.5
20190423020815 57 207 0.0 0.0 0.00 0.00 0.00 83 1023.4
20190423020318 57 207 0.0 0.0 0.00 0.00 0.00 82 1023.7
20190423015827 57 207 0.0 0.0 0.00 0.00 0.00 82 1023.8
20190423015322 58 207 0.0 0.0 0.00 0.00 0.00 82 1023.9
20190423014832 58 207 0.0 0.0 0.00 0.00 0.00 81 1024.1
20190423014319 59 207 0.0 0.0 0.00 0.00 0.00 79 1024.1
20190423013817 60 207 0.0 0.0 0.00 0.00 0.00 77 1024.1
20190423013332 60 207 0.0 0.0 0.00 0.00 0.00 74 1024.2
20190423012828 60 157 0.0 0.0 0.00 0.00 0.00 70 1024.1
20190423012317 61 160 0.0 0.0 0.00 0.00 0.00 69 1023.9
20190423011837 61 160 0.0 0.0 0.00 0.00 0.00 70 1023.9
20190423011339 61 161 0.0 0.0 0.00 0.00 0.00 72 1023.9
20190423010818 61 150 0.0 0.0 0.00 0.00 0.00 71 1023.9
20190423010330 61 144 0.0 0.0 0.00 0.00 0.00 70 1023.9
20190423005847 61 163 0.0 0.0 0.00 0.00 0.00 69 1023.8
20190423005335 61 163 0.0 0.0 0.00 0.00 0.00 66 1023.9
20190423004820 62 163 0.0 0.0 0.00 0.00 0.00 66 1023.9
20190423004329 62 163 0.0 0.0 0.00 0.00 0.00 66 1023.9
20190423003818 62 163 0.0 0.0 0.00 0.00 0.00 65 1023.9
20190423003321 62 163 0.0 0.0 0.00 0.00 0.00 65 1023.8
20190423002832 62 163 0.0 0.0 0.00 0.00 0.00 65 1023.8
20190423002316 62 163 0.0 0.0 0.00 0.00 0.00 65 1023.9
20190423001831 62 163 0.0 0.0 0.00 0.00 0.00 65 1023.9
20190423001329 62 163 0.0 0.0 0.00 0.00 0.00 65 1023.8
20190423000839 62 163 0.0 0.0 0.00 0.00 0.00 64 1023.9
20190423000335 62 163 0.0 0.0 0.00 0.00 0.00 64 1023.9
20190422235845 62 163 0.0 0.0 0.00 0.00 0.00 64 1023.9
20190422235316 62 163 0.0 0.0 0.00 0.00 0.00 63 1023.9
20190422234833 62 163 0.0 0.0 0.00 0.00 0.00 63 1023.9
20190422234324 62 163 0.0 0.0 0.00 0.00 0.00 63 1023.8
20190422233820 62 163 0.0 0.0 0.00 0.00 0.00 62 1023.8
20190422233318 62 163 0.0 0.0 0.00 0.00 0.00 61 1023.8
20190422232831 62 163 0.0 0.0 0.00 0.00 0.00 62 1023.8
20190422232318 62 163 0.0 0.0 0.00 0.00 0.00 60 1023.8
20190422231827 62 163 0.0 0.0 0.00 0.00 0.00 61 1023.8
20190422231321 62 163 0.0 0.0 0.00 0.00 0.00 60 1023.8
20190422230813 62 163 0.0 0.0 0.00 0.00 0.00 61 1023.8
20190422230321 62 163 0.0 0.0 0.00 0.00 0.00 61 1023.8
20190422225828 62 163 0.0 0.0 0.00 0.00 0.00 61 1023.9
20190422225333 62 163 0.0 0.0 0.00 0.00 0.00 64 1023.9
20190422224814 62 169 0.0 0.0 0.00 0.00 0.00 66 1023.9
20190422224337 62 158 0.0 0.0 0.00 0.00 0.00 63 1023.9
20190422223821 62 156 0.0 0.0 0.00 0.00 0.00 64 1024.0
20190422223324 63 156 0.0 0.0 0.00 0.00 0.00 65 1024.0
20190422222843 63 156 0.0 0.0 0.00 0.00 0.00 66 1024.0
20190422222321 63 158 0.0 0.0 0.00 0.00 0.00 65 1024.1
20190422221828 63 161 0.0 0.0 0.00 0.00 0.00 67 1024.1
20190422221326 63 161 0.0 0.0 0.00 0.00 0.00 64 1024.1
20190422220829 63 156 0.0 0.0 0.00 0.00 0.00 65 1024.1
20190422220321 63 167 0.0 0.0 0.00 0.00 0.00 64 1024.2
20190422215828 63 166 0.0 0.0 0.00 0.00 0.00 64 1024.3
20190422215328 64 161 0.0 0.0 0.00 0.00 0.00 62 1024.3
20190422214816 64 172 0.0 0.0 0.00 0.00 0.00 63 1024.4
20190422214331 65 148 0.0 0.0 0.00 0.00 0.00 59 1024.4
20190422213816 65 159 0.0 0.0 0.00 0.00 0.00 61 1024.5
20190422213327 65 167 0.0 0.0 0.00 0.00 0.00 60 1024.4
20190422212827 65 231 0.0 0.0 0.00 0.00 0.00 59 1024.5
20190422212322 66 155 0.0 0.0 0.00 0.00 0.00 62 1024.4
20190422211836 66 169 0.0 0.0 0.00 0.00 0.00 58 1024.6
20190422211323 66 163 0.0 0.0 0.00 0.00 0.00 61 1024.5
20190422210818 65 165 0.0 0.0 0.00 0.00 0.00 63 1024.4
20190422210330 65 268 0.0 0.0 0.00 0.00 0.00 60 1024.4
20190422205826 65 160 0.0 0.0 0.00 0.00 0.00 59 1024.4
20190422205333 65 155 0.0 0.0 0.00 0.00 0.00 65 1024.4
20190422204828 65 217 0.0 0.0 0.00 0.00 0.00 61 1024.5
20190422204319 65 171 0.0 0.0 0.00 0.00 0.00 61 1024.5
20190422203829 65 159 0.0 0.0 0.00 0.00 0.00 59 1024.6
20190422203315 65 155 0.0 0.0 0.00 0.00 0.00 60 1024.5
20190422202830 65 156 0.0 0.0 0.00 0.00 0.00 61 1024.7
20190422202320 64 105 0.0 0.0 0.00 0.00 0.00 60 1024.7
20190422201818 64 53 0.0 0.0 0.00 0.00 0.00 60 1024.6
20190422201327 64 52 0.0 0.0 0.00 0.00 0.00 58 1024.7
20190422200819 64 152 0.0 0.0 0.00 0.00 0.00 63 1024.7
20190422200322 64 161 0.0 0.0 0.00 0.00 0.00 65 1024.7
20190422195841 63 311 0.0 0.0 0.00 0.00 0.00 63 1024.9
20190422195336 63 159 0.0 0.0 0.00 0.00 0.00 65 1024.8
20190422194820 63 150 0.0 0.0 0.00 0.00 0.00 64 1024.8
20190422194329 63 164 0.0 0.0 0.00 0.00 0.00 63 1024.8
20190422193817 63 165 0.0 0.0 0.00 0.00 0.00 64 1024.8
20190422193313 63 153 0.0 0.0 0.00 0.00 0.00 68 1024.8
20190422192829 63 149 0.0 0.0 0.00 0.00 0.00 69 1024.9
20190422192319 63 161 0.0 0.0 0.00 0.00 0.00 67 1024.9
20190422191829 62 337 0.0 0.0 0.00 0.00 0.00 67 1024.9
20190422191343 62 180 0.0 0.0 0.00 0.00 0.00 71 1024.9
20190422190825 62 153 0.0 0.0 0.00 0.00 0.00 70 1025.0
20190422190323 61 56 0.0 0.0 0.00 0.00 0.00 76 1024.8
20190422185821 61 214 0.0 0.0 0.00 0.00 0.00 68 1024.7
20190422185316 61 216 0.0 0.0 0.00 0.00 0.00 70 1024.8
20190422184826 61 313 0.0 0.0 0.00 0.00 0.00 68 1024.8
20190422184336 61 59 0.0 0.0 0.00 0.00 0.00 67 1024.9
20190422183825 62 254 0.0 0.0 0.00 0.00 0.00 70 1025.0
20190422183330 61 174 0.0 0.0 0.00 0.00 0.00 69 1024.9
20190422182841 61 135 0.0 0.0 0.00 0.00 0.00 68 1025.0
20190422182346 62 167 0.0 0.0 0.00 0.00 0.00 68 1025.1
20190422181816 61 158 0.0 0.0 0.00 0.00 0.00 71 1025.1
20190422181339 61 80 0.0 0.0 0.00 0.00 0.00 68 1025.1
20190422180824 61 89 0.0 0.0 0.00 0.00 0.00 73 1025.1
20190422180318 60 59 0.0 0.0 0.00 0.00 0.00 73 1025.1
20190422175819 59 53 0.0 0.0 0.00 0.00 0.00 72 1025.2
20190422175332 59 251 0.0 0.0 0.00 0.00 0.00 72 1025.3
20190422174838 59 136 0.0 0.0 0.00 0.00 0.00 74 1025.3
20190422174324 59 111 0.0 0.0 0.00 0.00 0.00 72 1025.2
20190422173839 58 146 0.0 0.0 0.00 0.00 0.00 77 1025.3
20190422173348 58 61 0.0 0.0 0.00 0.00 0.00 77 1025.2
20190422172829 57 46 0.0 0.0 0.00 0.00 0.00 77 1025.3
20190422172323 56 161 0.0 0.0 0.00 0.00 0.00 81 1025.3
20190422171822 55 162 0.0 0.0 0.00 0.00 0.00 79 1025.2
20190422171319 54 91 0.0 0.0 0.00 0.00 0.00 81 1025.3
20190422170838 54 91 0.0 0.0 0.00 0.00 0.00 82 1025.2
20190422170346 53 91 0.0 0.0 0.00 0.00 0.00 83 1025.2
20190422165810 53 91 0.0 0.0 0.00 0.00 0.00 83 1025.3
20190422165316 52 91 0.0 0.0 0.00 0.00 0.00 84 1025.4
20190422164824 52 128 0.0 0.0 0.00 0.00 0.00 84 1025.5
20190422164329 51 168 0.0 0.0 0.00 0.00 0.00 84 1025.6
20190422163824 51 171 0.0 0.0 0.00 0.00 0.00 84 1025.6
20190422163314 50 184 0.0 0.0 0.00 0.00 0.00 85 1025.8
20190422162814 50 43 0.0 0.0 0.00 0.00 0.00 85 1025.8
20190422162332 49 43 0.0 0.0 0.00 0.00 0.00 85 1025.9
20190422161846 49 43 0.0 0.0 0.00 0.00 0.00 84 1025.9
20190422161319 48 43 0.0 0.0 0.00 0.00 0.00 84 1025.9
20190422160842 48 43 0.0 0.0 0.00 0.00 0.00 85 1026.1
20190422160323 47 43 0.0 0.0 0.00 0.00 0.00 85 1026.1
20190422155819 47 42 0.0 0.0 0.00 0.00 0.00 85 1026.1
20190422155314 47 42 0.0 0.0 0.00 0.00 0.00 85 1026.0
20190422154830 47 42 0.0 0.0 0.00 0.00 0.00 86 1026.0
20190422154325 46 42 0.0 0.0 0.00 0.00 0.00 86 1026.1
20190422153840 46 42 0.0 0.0 0.00 0.00 0.00 86 1026.2
20190422153346 46 42 0.0 0.0 0.00 0.00 0.00 86 1026.3
20190422152821 45 42 0.0 0.0 0.00 0.00 0.00 86 1026.2
20190422152334 45 42 0.0 0.0 0.00 0.00 0.00 87 1026.2
20190422151826 46 42 0.0 0.0 0.00 0.00 0.00 88 1026.1
20190422151319 46 42 0.0 0.0 0.00 0.00 0.00 88 1026.1
20190422150815 45 42 0.0 0.0 0.00 0.00 0.00 88 1025.9
20190422150321 45 42 0.0 0.0 0.00 0.00 0.00 88 1025.9
20190422145837 44 41 0.0 0.0 0.00 0.00 0.00 88 1025.9
20190422145333 44 41 0.0 0.0 0.00 0.00 0.00 88 1025.8
20190422144844 43 41 0.0 0.0 0.00 0.00 0.00 88 1025.9
20190422144328 43 41 0.0 0.0 0.00 0.00 0.00 88 1025.8
20190422143814 42 41 0.0 0.0 0.00 0.00 0.00 87 1025.9
20190422143332 42 41 0.0 0.0 0.00 0.00 0.00 88 1026.0
20190422142825 42 41 0.0 0.0 0.00 0.00 0.00 87 1025.9
20190422142322 41 41 0.0 0.0 0.00 0.00 0.00 87 1025.8
20190422141832 41 41 0.0 0.0 0.00 0.00 0.00 87 1025.7
20190422141342 40 41 0.0 0.0 0.00 0.00 0.00 87 1025.7
20190422140818 40 41 0.0 0.0 0.00 0.00 0.00 87 1025.5
20190422140331 40 41 0.0 0.0 0.00 0.00 0.00 87 1025.4
20190422135817 40 41 0.0 0.0 0.00 0.00 0.00 87 1025.3
20190422135329 41 41 0.0 0.0 0.00 0.00 0.00 87 1025.3
20190422134821 41 41 0.0 0.0 0.00 0.00 0.00 87 1025.4
20190422134323 41 41 0.0 0.0 0.00 0.00 0.00 86 1025.3
20190422133835 41 41 0.0 0.0 0.00 0.00 0.00 87 1025.4
20190422133333 41 41 0.0 0.0 0.00 0.00 0.00 87 1025.4
20190422132819 41 41 0.0 0.0 0.00 0.00 0.00 87 1025.4
20190422132328 41 41 0.0 0.0 0.00 0.00 0.00 87 1025.5
20190422131813 41 41 0.0 0.0 0.00 0.00 0.00 87 1025.5
20190422131331 41 41 0.0 0.0 0.00 0.00 0.00 87 1025.3
20190422130823 41 41 0.0 0.0 0.00 0.00 0.00 87 1025.3
20190422130319 41 41 0.0 0.0 0.00 0.00 0.00 87 1025.3
20190422125833 41 41 0.0 0.0 0.00 0.00 0.00 87 1025.3
20190422125319 41 41 0.0 0.0 0.00 0.00 0.00 87 1025.0
20190422124819 41 41 0.0 0.0 0.00 0.00 0.00 86 1024.9
20190422124328 40 41 0.0 0.0 0.00 0.00 0.00 86 1024.9
20190422123819 40 41 0.0 0.0 0.00 0.00 0.00 86 1024.9
20190422123319 40 41 0.0 0.0 0.00 0.00 0.00 86 1024.7
20190422122829 40 41 0.0 0.0 0.00 0.00 0.00 86 1024.7
20190422122326 41 41 0.0 0.0 0.00 0.00 0.00 86 1024.7
20190422121815 41 41 0.0 0.0 0.00 0.00 0.00 86 1024.6
20190422121335 41 41 0.0 0.0 0.00 0.00 0.00 86 1024.6
20190422120816 41 41 0.0 0.0 0.00 0.00 0.00 86 1024.6
20190422120325 41 41 0.0 0.0 0.00 0.00 0.00 86 1024.7
20190422115820 41 41 0.0 0.0 0.00 0.00 0.00 86 1024.7
20190422115318 41 41 0.0 0.0 0.00 0.00 0.00 86 1024.8
20190422114824 42 41 0.0 0.0 0.00 0.00 0.00 85 1024.8
20190422114322 42 41 0.0 0.0 0.00 0.00 0.00 86 1024.9
20190422113838 42 41 0.0 0.0 0.00 0.00 0.00 85 1024.9
20190422113319 42 41 0.0 0.0 0.00 0.00 0.00 85 1024.7
20190422112817 42 41 0.0 0.0 0.00 0.00 0.00 86 1024.8
20190422112327 42 41 0.0 0.0 0.00 0.00 0.00 86 1024.7
20190422111828 43 41 0.0 0.0 0.00 0.00 0.00 85 1024.7
20190422111320 43 41 0.0 0.0 0.00 0.00 0.00 85 1024.7
20190422110828 43 41 0.0 0.0 0.00 0.00 0.00 85 1024.6
20190422110317 43 41 0.0 0.0 0.00 0.00 0.00 85 1024.7
20190422105838 43 41 0.0 0.0 0.00 0.00 0.00 85 1024.6
20190422105319 43 41 0.0 0.0 0.00 0.00 0.00 85 1024.6
20190422104825 43 41 0.0 0.0 0.00 0.00 0.00 85 1024.6
20190422104317 43 41 0.0 0.0 0.00 0.00 0.00 85 1024.7
20190422103830 43 41 0.0 0.0 0.00 0.00 0.00 85 1024.7
20190422103317 43 41 0.0 0.0 0.00 0.00 0.00 85 1024.8
20190422102823 44 41 0.0 0.0 0.00 0.00 0.00 85 1024.8
20190422102336 44 41 0.0 0.0 0.00 0.00 0.00 85 1024.9
20190422101818 44 41 0.0 0.0 0.00 0.00 0.00 84 1025.0
20190422101341 44 41 0.0 0.0 0.00 0.00 0.00 85 1025.0
20190422100846 44 41 0.0 0.0 0.00 0.00 0.00 84 1025.0
20190422100321 45 41 0.0 0.0 0.00 0.00 0.00 85 1025.0
20190422095833 45 41 0.0 0.0 0.00 0.00 0.00 85 1025.0
20190422095320 45 41 0.0 0.0 0.00 0.00 0.00 85 1024.9
20190422094827 45 41 0.0 0.0 0.00 0.00 0.00 85 1025.0
20190422094333 45 41 0.0 0.0 0.00 0.00 0.00 85 1025.1
20190422093818 45 41 0.0 0.0 0.00 0.00 0.00 85 1025.2
20190422093326 45 41 0.0 0.0 0.00 0.00 0.00 85 1025.2
20190422092820 45 41 0.0 0.0 0.00 0.00 0.00 85 1025.2
20190422092313 45 41 0.0 0.0 0.00 0.00 0.00 85 1025.3
20190422091831 45 41 0.0 0.0 0.00 0.00 0.00 85 1025.4
20190422091334 45 41 0.0 0.0 0.00 0.00 0.00 85 1025.4
20190422090819 45 41 0.0 0.0 0.00 0.00 0.00 84 1025.5
20190422090316 45 41 0.0 0.0 0.00 0.00 0.00 85 1025.6
20190422085811 45 41 0.0 0.0 0.00 0.00 0.00 85 1025.7
20190422085329 45 41 0.0 0.0 0.00 0.00 0.00 85 1025.5
20190422084816 45 41 0.0 0.0 0.00 0.00 0.00 85 1025.6
20190422084331 45 41 0.0 0.0 0.00 0.00 0.00 85 1025.5
20190422083815 45 41 0.0 0.0 0.00 0.00 0.00 86 1025.6
20190422083338 45 41 0.0 0.0 0.00 0.00 0.00 85 1025.5
20190422082819 45 41 0.0 0.0 0.00 0.00 0.00 85 1025.4
20190422082313 45 41 0.0 0.0 0.00 0.00 0.00 85 1025.5
20190422081831 45 41 0.0 0.0 0.00 0.00 0.00 85 1025.6
20190422081324 45 41 0.0 0.0 0.00 0.00 0.00 84 1025.6
20190422080822 45 41 0.0 0.0 0.00 0.00 0.00 84 1025.7
20190422080334 45 41 0.0 0.0 0.00 0.00 0.00 85 1025.6
20190422075818 46 41 0.0 0.0 0.00 0.00 0.00 85 1025.7
20190422075324 46 41 0.0 0.0 0.00 0.00 0.00 84 1025.7
20190422074821 46 41 0.0 0.0 0.00 0.00 0.00 84 1025.7
20190422074334 46 41 0.0 0.0 0.00 0.00 0.00 84 1025.6
20190422073814 46 41 0.0 0.0 0.00 0.00 0.00 84 1025.7
20190422073327 46 41 0.0 0.0 0.00 0.00 0.00 84 1025.7
20190422072837 46 41 0.0 0.0 0.00 0.00 0.00 84 1025.8
20190422072318 46 41 0.0 0.0 0.00 0.00 0.00 84 1025.7
20190422071827 46 41 0.0 0.0 0.00 0.00 0.00 84 1025.6
20190422071317 46 41 0.0 0.0 0.00 0.00 0.00 84 1025.6
20190422070821 47 41 0.0 0.0 0.00 0.00 0.00 84 1025.7
20190422070313 47 41 0.0 0.0 0.00 0.00 0.00 84 1025.7
20190422065837 47 41 0.0 0.0 0.00 0.00 0.00 84 1025.6
20190422065345 47 41 0.0 0.0 0.00 0.00 0.00 84 1025.6
20190422064840 47 41 0.0 0.0 0.00 0.00 0.00 84 1025.5
20190422064320 47 41 0.0 0.0 0.00 0.00 0.00 84 1025.4
20190422063828 48 41 0.0 0.0 0.00 0.00 0.00 85 1025.4